Powrót do katalogu

SL-14 R/B

AktywnyPO
NORAD 13272·ROCKET BODY·🇷🇺 Russia

Wystrzelony Jun 10, 1982 z Plesetsk Cosmodrome

Loading…

Następne Przeloty (najbliższe 24 godziny)

TLE

ŚwieżeSource: Space-Track

Epoka: Sep 14, 2026, 19:58 UTC

1 13272U 82059B   26257.83195715  .00000362  00000-0  37208-4 0  9995
2 13272  82.5111 202.5742 0019166 112.2224 248.1029 14.87308322372055

Śledź SL-14 R/B w czasie rzeczywistym z AllMySat

Download on the App Store